Tracking 23610 objects as of 19-Sep-2021
HD Live streaming from Space Station
objects crossing your sky now

DMSP 5D-2 F13 DEB

Track DMSP 5D-2 F13 DEB now!
10-day predictions


NORAD ID: 42289
Int'l Code: 1995-015HF
Perigee: 822.7 km
Apogee: 909.6 km
Inclination: 98.9 °
Period: 102.1 minutes
Semi major axis: 7237 km
RCS: Unknown
Launch date: March 24, 1995
Source: United States (US)
Launch site: AIR FORCE WESTERN TEST RANGE (AFWTR)

Note: This is SATELLITE DEBRIS
aabbcc
Your satellite tracking list
Your tracking list is empty




NASA's NSSDC Master Catalog

Two Line Element Set (TLE):
1 42289U 95015HF  21261.38589826  .00001649  00000-0  94200-3 0  9994
2 42289  98.8608 238.0795 0060059 303.7490  55.7967 14.10096815326685
Source of the keplerian elements: AFSPC